Flag for U.S.A. Weather past 2 weeks in Overland Park, Kansas, U.S.A.

Now
47 °F

Clear.


Feels Like: 47 °F
Forecast: 39 / 71 °F
Wind: No wind

Location: Johnson County Executive Airport

Current Time: Mar 30, 2015 at 12:27:45 AM

Latest Report: Mar 29, 2015 at 11:53 PM


Visibility: 10 mi

Pressure: 30.16 "Hg

Humidity: 61%

Dew point: 34 °F

Location of Overland ParkLocation

Historic Weather in Overland Park — Graph

°F

Overland Park temperature yesterday

Maximum temperature yesterday: 67 °F (at 4:53 PM)
Minimum temperature yesterday: 37 °F (at 2:53 AM)
Average temperature yesterday: 50 °F

Past Weeks' High & Low Weather Summary

 TemperatureHumidityPressure
High80 °F (Mar 16, 2:53 PM)100% (Mar 19, 1:53 AM)30.35 "Hg (Mar 19, 1:53 AM)
Low32 °F (Mar 20, 6:53 AM)22% (Mar 15, 4:53 PM)29.76 "Hg (Mar 24, 4:53 PM)
Average49 °F65%30.09 "Hg
* Reported Mar 14 10:53 PM — Mar 29 10:53 PM, Overland Park, Weather by CustomWeather, © 2015

Note: Actual official high and low records may vary slightly from our data, if they occured in-between our weather recording intervals... More about our weather records

Advertising

Overland Park weather history for previous 24 hours

 ConditionsComfort  
Time TempWeatherWind HumidityBarometerVisibility
10:53 PM
Sun, Mar 29
50 °FClear.5 mph57%30.16 "Hg10 mi
9:53 PM52 °FClear.3 mph55%30.15 "Hg10 mi
8:53 PM55 °FClear.8 mph51%30.13 "Hg10 mi
7:53 PM57 °FSunny.7 mph47%30.09 "Hg10 mi
6:53 PM61 °FSunny.17 mph46%30.04 "Hg10 mi
5:53 PM66 °FSunny.15 mph40%30.00 "Hg10 mi
4:53 PM67 °FSunny.17 mph39%29.98 "Hg10 mi
3:53 PM66 °FSunny.14 mph39%29.98 "Hg10 mi
2:53 PM63 °FPassing clouds.16 mph43%29.98 "Hg10 mi
1:53 PM60 °FSunny.3 mph58%29.98 "Hg10 mi
12:53 PM56 °FSunny.10 mph62%30.01 "Hg10 mi
11:53 AM51 °FPassing clouds.8 mph69%30.01 "Hg10 mi
10:53 AM49 °FSunny.10 mph69%29.99 "Hg10 mi
9:53 AM44 °FSunny.14 mph73%29.98 "Hg10 mi
8:53 AM42 °FScattered clouds.10 mph79%30.06 "Hg10 mi
7:53 AM39 °FPassing clouds.14 mph86%29.97 "Hg10 mi
6:53 AM39 °FClear.9 mph82%29.96 "Hg10 mi
5:53 AM37 °FClear.20 mph86%29.94 "Hg10 mi
4:53 AM37 °FClear.16 mph86%29.95 "Hg10 mi
3:53 AM37 °FClear.13 mph86%29.98 "Hg10 mi
2:53 AM37 °FClear.15 mph86%29.99 "Hg10 mi
1:53 AM38 °FClear.14 mph79%30.02 "Hg10 mi
12:53 AM38 °FClear.16 mph79%30.06 "Hg10 mi
Weather by CustomWeather, © 2015

See weather overviewHow to use our weather pages